Flag for U.S.A. Weather past 2 weeks in Springfield, Missouri, U.S.A.

Now
79 °F

Clear.


Feels Like: 80 °F
Forecast: 70 / 83 °F
Wind: 8 mph from South

Location: Springfield Regional Airport

Current Time: Aug 28, 2014 at 10:29:20 PM

Latest Report: Aug 28, 2014 at 9:52 PM


Visibility: 10 mi

Pressure: 29.90 "Hg

Humidity: 50%

Dew point: 59 °F

Location of SpringfieldLocation

Historic Weather in Springfield — Graph

°F

Springfield temperature yesterday

Maximum temperature yesterday: 96 °F (at 1:52 PM)
Minimum temperature yesterday: 71 °F (at 5:52 AM)
Average temperature yesterday: 82 °F

Past Weeks' High & Low Weather Summary

 TemperatureHumidityPressure
High100 °F (Aug 24, 4:52 PM)97% (Aug 17, 7:52 AM)30.09 "Hg (Aug 17, 7:52 AM)
Low59 °F (Aug 14, 5:52 AM)21% (Aug 24, 4:52 PM)29.78 "Hg (Aug 19, 5:52 PM)
Average81 °F61%29.93 "Hg
* Reported Aug 13 8:52 PM — Aug 28 8:52 PM, Springfield, Weather by CustomWeather, © 2014

Note: Actual official high and low records may vary slightly from our data, if they occured in-between our weather recording intervals... More about our weather records

Advertising

Springfield weather history for previous 24 hours

 ConditionsComfort  
Time TempWeatherWind HumidityBarometerVisibility
8:52 PM
Aug 28
82 °FClear.8 mph46%29.90 "Hg10 mi
7:52 PM84 °FSunny.8 mph43%29.89 "Hg10 mi
6:52 PM89 °FSunny.8 mph35%29.87 "Hg10 mi
5:52 PM91 °FSunny.12 mph30%29.87 "Hg10 mi
4:52 PM94 °FPassing clouds.13 mph29%29.88 "Hg10 mi
3:52 PM93 °FPartly sunny.6 mph30%29.90 "Hg10 mi
2:52 PM92 °FPassing clouds.9 mph33%29.92 "Hg10 mi
1:52 PM90 °FScattered clouds.13 mph39%29.95 "Hg10 mi
12:52 PM89 °FPassing clouds.10 mph41%29.96 "Hg10 mi
11:52 AM87 °FSunny.9 mph46%29.98 "Hg10 mi
10:52 AM85 °FPassing clouds.14 mph55%29.99 "Hg10 mi
9:52 AM83 °FSunny.10 mph63%29.99 "Hg10 mi
8:52 AM80 °FSunny.10 mph69%29.99 "Hg10 mi
7:52 AM76 °FSunny.10 mph80%30.00 "Hg10 mi
6:52 AM73 °FClear.7 mph84%29.99 "Hg8 mi
5:52 AM73 °FClear.9 mph88%29.98 "Hg10 mi
4:52 AM75 °FClear.8 mph82%29.98 "Hg10 mi
3:52 AM75 °FPassing clouds.8 mph82%29.98 "Hg10 mi
2:52 AM75 °FClear.9 mph82%29.98 "Hg10 mi
1:52 AM75 °FClear.8 mph82%29.99 "Hg10 mi
12:52 AM75 °FClear.7 mph79%30.00 "Hg10 mi
11:52 PM
Aug 27
78 °FClear.8 mph71%30.01 "Hg10 mi
10:52 PM79 °FClear.8 mph69%30.02 "Hg10 mi
Weather by CustomWeather, © 2014

See weather overviewHow to use our weather pages